Location: East Arcadia
(34.1056°N, 118.0176°W)
Time: 00:12:42
(UTC+00:00)

Meteor 1-27 Rocket - Pass Details

Date: 01 April 2023
Orbit: 830 x 909 km, 81.3° (Epoch: 08 June)

Event Time Altitude Azimuth Distance (km) Brightness Sun altitude
Exits shadow 12:34:37 - 211° (SSW) 2,617 5.8 -14.0°
Reaches altitude 10° 12:34:50 10° 212° (SSW) 2,542 5.8 -14.0°
Maximum altitude 12:40:16 42° 282° (WNW) 1,235 4.2 -12.9°
Drops below altitude 10° 12:45:38 10° 353° (N) 2,505 6.2 -11.8°
Sets 12:48:12 0° 0° (N) 3,433 7.1 -11.3°
